GW6468 Weather Reports


time (UTC)temp
C
wind
direction
speed
KPH
gust
KPH
rain 1hr
cm
rain 24hr
cm
rain mn
cm
humidity
%
barometer
mb
20260508144507 17 344 3.2 8.0 0.00 0.00 0.00 50 1018.5
20260508143011 16 314 1.6 4.8 0.00 0.00 0.00 49 1018.6
20260508141523 15 294 0.0 6.4 0.00 0.00 0.00 57 1018.4
20260508140022 15 191 1.6 4.8 0.00 0.00 0.00 57 1018.4
20260508134527 15 204 0.0 4.8 0.00 0.00 0.00 64 1018.3
20260508133019 13 205 0.0 6.4 0.00 0.00 0.00 69 1018.2
20260508131513 13 222 1.6 3.2 0.00 0.00 0.00 76 1018.1
20260508130019 12 121 1.6 4.8 0.00 0.00 0.00 74 1017.9
20260508124524 11 128 0.0 0.0 0.00 0.00 0.00 77 1017.9
20260508123028 10 141 0.0 1.6 0.00 0.00 0.00 81 1018.0
20260508121512 10 125 0.0 3.2 0.00 0.00 0.00 83 1017.8
20260508120015 9 123 0.0 0.0 0.00 0.00 0.00 84 1017.6
20260508114521 7 105 0.0 1.6 0.00 0.00 0.00 87 1017.3
20260508113025 7 143 0.0 1.6 0.00 0.00 0.00 90 1017.0
20260508111535 6 138 0.0 1.6 0.00 0.00 0.00 93 1016.8
20260508110012 5 138 0.0 1.6 0.00 0.00 0.00 94 1016.6
20260508104517 5 139 0.0 1.6 0.00 0.00 0.00 94 1016.1
20260508103023 5 163 0.0 0.0 0.00 0.00 0.00 95 1015.9
20260508101510 5 131 0.0 0.0 0.00 0.00 0.00 94 1015.7
20260508100008 6 122 0.0 1.6 0.00 0.00 0.00 94 1015.7
20260508094514 6 111 0.0 1.6 0.00 0.00 0.00 95 1015.4
20260508093020 6 111 0.0 1.6 0.00 0.00 0.00 94 1015.4
20260508091504 6 111 0.0 1.6 0.00 0.00 0.00 94 1015.4
20260508090010 6 134 0.0 0.0 0.00 0.00 0.00 94 1015.4
20260508084512 6 135 0.0 0.0 0.00 0.00 0.00 94 1015.3
20260508083015 6 134 0.0 0.0 0.00 0.00 0.00 94 1015.3
20260508081520 6 134 0.0 0.0 0.00 0.00 0.00 94 1015.2
20260508080010 6 134 0.0 0.0 0.00 0.00 0.00 93 1015.1
20260508074512 6 134 0.0 0.0 0.00 0.00 0.00 93 1014.9
20260508073013 6 141 0.0 3.2 0.00 0.00 0.00 93 1014.8
20260508071521 7 116 1.6 3.2 0.00 0.00 0.00 94 1014.6
20260508070022 7 141 0.0 3.2 0.00 0.00 0.00 93 1014.6
20260508064533 7 125 0.0 1.6 0.00 0.00 0.00 94 1014.8
20260508063020 7 141 0.0 0.0 0.00 0.00 0.00 94 1014.7
20260508061517 7 141 0.0 0.0 0.00 0.00 0.00 93 1014.5
20260508060018 7 145 0.0 1.6 0.00 0.00 0.00 92 1014.6
20260508054521 7 146 0.0 1.6 0.00 0.00 0.00 91 1014.4
20260508053028 8 145 0.0 1.6 0.00 0.00 0.00 88 1014.3
20260508051506 8 146 0.0 1.6 0.00 0.00 0.00 90 1014.2
20260508050019 8 146 0.0 1.6 0.00 0.00 0.00 88 1014.2
20260508044518 8 136 0.0 1.6 0.00 0.00 0.00 86 1014.1
20260508043023 9 136 0.0 1.6 0.00 0.00 0.00 85 1014.1
20260508041526 9 131 0.0 1.6 0.00 0.00 0.00 85 1014.1
20260508040021 10 120 0.0 1.6 0.00 0.00 0.00 82 1014.1
20260508034516 9 137 0.0 1.6 0.00 0.00 0.00 86 1014.0
20260508033022 10 139 0.0 1.6 0.00 0.00 0.00 84 1013.9
20260508031529 10 140 0.0 1.6 0.00 0.00 0.00 84 1013.9
20260508030028 10 139 0.0 1.6 0.00 0.00 0.00 81 1014.0
20260508024518 10 153 0.0 0.0 0.00 0.00 0.00 83 1013.6
20260508023027 10 153 0.0 0.0 0.00 0.00 0.00 80 1013.6
20260508021520 10 153 0.0 1.6 0.00 0.00 0.00 81 1013.5
20260508020005 11 143 0.0 0.0 0.00 0.00 0.00 80 1013.2
20260508014540 12 132 0.0 1.6 0.00 0.00 0.00 71 1012.8
20260508013020 12 132 0.0 1.6 0.00 0.00 0.00 69 1012.5
20260508011521 13 129 1.6 4.8 0.00 0.00 0.00 67 1012.2
20260508010027 13 83 1.6 9.7 0.00 0.00 0.00 66 1012.0
20260508004529 14 122 4.8 12.9 0.00 0.00 0.00 66 1012.0
20260508003042 15 135 4.8 14.5 0.00 0.00 0.00 65 1011.5
20260508001515 15 131 4.8 14.5 0.00 0.00 0.00 66 1011.5
20260508000021 16 128 6.4 17.7 0.00 0.00 0.00 65 1011.6
20260507234523 16 94 8.0 24.1 0.00 0.00 0.00 66 1011.6
20260507233032 16 127 4.8 9.7 0.00 0.00 0.00 80 1011.2
20260507231510 17 143 1.6 9.7 0.00 0.00 0.00 82 1010.8
20260507230017 17 149 4.8 9.7 0.00 0.00 0.00 79 1010.5
20260507224524 17 176 6.4 16.1 0.00 0.00 0.00 80 1010.2
20260507223026 17 202 8.0 14.5 0.00 0.00 0.00 79 1009.8
20260507221529 17 199 8.0 17.7 0.00 0.00 0.00 80 1009.7
20260507220024 17 203 11.3 17.7 0.00 0.00 0.00 81 1009.5
20260507214522 17 213 11.3 22.5 0.00 0.00 0.00 82 1009.4
20260507213025 17 189 9.7 20.9 0.00 0.00 0.00 83 1009.2
20260507211526 16 179 3.2 19.3 0.00 0.00 0.00 87 1009.2
20260507210032 16 157 12.9 20.9 0.00 0.00 0.00 87 1008.9
20260507204522 16 154 11.3 27.4 0.00 0.00 0.00 87 1008.9
20260507203024 16 195 12.9 20.9 0.00 0.00 0.00 87 1008.6
20260507201527 16 195 9.7 32.2 0.00 0.00 0.00 87 1008.3
20260507200027 17 204 17.7 30.6 0.00 0.00 0.00 85 1008.2
20260507194530 18 194 16.1 24.1 0.00 0.00 0.00 85 1008.0
20260507193023 20 157 11.3 25.7 0.00 0.00 0.00 85 1007.8
20260507191520 21 23 6.4 16.1 0.00 0.00 0.00 69 1007.8
20260507190027 23 276 3.2 8.0 0.00 0.00 0.00 68 1007.8
20260507184525 24 273 4.8 9.7 0.00 0.00 0.00 68 1007.7
20260507183027 24 298 3.2 12.9 0.00 0.00 0.00 67 1007.9
20260507181515 24 283 8.0 12.9 0.00 0.00 0.00 69 1008.0
20260507180025 23 328 9.7 12.9 0.00 0.00 0.00 70 1008.2
20260507174526 23 307 3.2 12.9 0.00 0.00 0.00 71 1008.3
20260507173031 23 269 4.8 8.0 0.00 0.00 0.00 71 1008.3
20260507171527 22 354 3.2 11.3 0.00 0.00 0.00 72 1008.5
20260507170017 22 241 3.2 12.9 0.00 0.00 0.00 74 1008.8
20260507164505 22 334 4.8 12.9 0.00 0.00 0.00 72 1009.1
20260507163005 21 103 4.8 17.7 0.00 0.00 0.00 76 1009.4
20260507161510 21 318 6.4 9.7 0.00 0.00 0.00 80 1009.3
20260507160027 20 115 0.0 3.2 0.00 0.00 0.00 81 1009.3
20260507154529 20 37 3.2 9.7 0.00 0.00 0.00 82 1008.9
20260507153005 20 209 1.6 8.0 0.00 0.00 0.00 83 1009.0
20260507151510 18 322 3.2 8.0 0.00 0.00 0.00 92 1009.4
20260507150013 17 222 1.6 6.4 0.00 0.00 0.00 93 1009.6